Date String (YYYY-MM-DD hh:mm:ss) UTC,Instrument flags,absolute air pressure of the measurement (hPa),sample flow rate (lpm),inlet stack bypass flow (lpm),air temperature of the measurement (°C),ambient temperature measured by the external sensor (°C),aerosol sample conditioner tube jacket temperature (°C),OPC LED temperature (°C),internal box temperature (°C),relative humidity of the measurement (%),span deviation,mass concentration of particles derived from Lorenz-Mie calculation of OPC scattering (μg/m³),mass concentration of particles derived from Lorenz-Mie calculation of OPC scattering (μg/m³),mass concentration of particles derived from Lorenz-Mie calculation of OPC scattering (μg/m³)
DateTimeUTC,F1_M11,P_M11,Q1_M11,Q2_M11,T1_M11,T2_M11,T3_M11,T4_M11,T5_M11,U1_M11,ZSPAN_M11,X2_M11,X0_M11,X1_M11
2023-06-30 02:00:00,SystemResetWarning,0830.3,5.01,000.00,029.4,025.7,000.0,037.9,030.5,28.9,0000.0,0005.23,0011.03,0003.95
2023-06-30 02:01:00,SystemResetWarning,0830.4,5.00,000.00,029.3,026.1,000.0,037.9,030.6,29.8,0000.0,0005.23,0011.04,0003.96
2023-06-30 02:02:00,SystemResetWarning,0830.4,5.00,000.00,029.3,026.5,000.0,037.9,030.7,29.9,0000.0,0005.20,0010.97,0003.97
2023-06-30 02:03:00,SystemResetWarning,0830.4,5.00,000.00,029.3,026.8,000.0,037.9,030.7,30.1,0000.0,0005.22,0011.13,0003.98
2023-06-30 02:04:00,SystemResetWarning,0830.7,5.00,000.00,029.3,027.1,000.0,037.9,030.8,30.8,0000.0,0005.25,0011.50,0003.98
2023-06-30 02:05:00,SystemResetWarning,0830.6,5.01,000.00,029.3,027.3,000.0,037.9,030.8,30.9,0000.0,0005.30,0011.56,0003.98
2023-06-30 02:06:00,SystemResetWarning,0830.6,4.99,000.00,029.4,027.5,000.0,037.9,030.9,30.6,0000.0,0005.31,0011.95,0003.97
2023-06-30 02:07:00,SystemResetWarning,0830.7,4.99,000.00,029.4,027.7,000.0,037.9,030.9,31.1,0000.0,0005.23,0011.50,0003.96
2023-06-30 02:08:00,SystemResetWarning,0830.7,4.99,000.00,029.4,027.9,000.0,037.9,031.0,31.5,0000.0,0005.22,0011.27,0003.96
2023-06-30 02:09:00,SystemResetWarning,0830.7,5.00,000.00,029.4,028.0,000.0,037.9,031.0,31.7,0000.0,0005.22,0010.98,0003.96
2023-06-30 02:10:00,SystemResetWarning,0830.6,5.01,000.00,029.5,028.1,000.0,037.9,031.0,31.6,0000.0,0005.24,0011.10,0003.94
2023-06-30 02:11:00,SystemResetWarning,0830.6,5.01,000.00,029.5,028.2,000.0,038.0,031.1,31.4,0000.0,0005.21,0011.10,0003.93
2023-06-30 02:12:00,SystemResetWarning,0830.6,4.99,000.00,029.5,028.3,000.0,038.0,031.1,31.2,0000.0,0005.16,0011.80,0003.92
2023-06-30 02:13:00,SystemResetWarning,0830.6,5.00,000.00,029.5,028.3,000.0,038.0,031.1,30.8,0000.0,0005.16,0011.87,0003.92
2023-06-30 02:14:00,SystemResetWarning,0830.6,4.99,000.00,029.6,027.9,000.0,038.0,031.1,30.7,0000.0,0005.15,0011.85,0003.91
2023-06-30 02:15:00,SystemResetWarning,0830.6,5.01,000.00,029.5,026.0,000.0,037.8,031.0,30.4,0000.0,0005.13,0011.61,0003.90
2023-06-30 02:16:00,SystemResetWarning,0830.5,5.00,000.00,029.5,025.3,000.0,037.7,030.7,30.7,0000.0,0005.06,0011.43,0003.88
2023-06-30 02:17:00,SystemResetWarning,0830.6,5.02,000.00,029.3,025.3,000.0,037.8,030.4,31.0,0000.0,0005.05,0010.82,0003.90
2023-06-30 02:18:00,SystemResetWarning,0830.5,4.99,000.00,029.2,025.7,000.0,037.8,030.4,31.2,0000.0,0005.12,0011.04,0003.91
2023-06-30 02:19:00,SystemResetWarning,0830.6,4.99,000.00,029.2,026.1,000.0,037.8,030.5,30.7,0000.0,0005.11,0011.25,0003.92
2023-06-30 02:20:00,SystemResetWarning,0830.7,4.99,000.00,029.2,026.5,000.0,037.8,030.6,30.9,0000.0,0005.14,0011.22,0003.93
2023-06-30 02:21:00,SystemResetWarning,0830.6,5.00,000.00,029.2,026.8,000.0,037.8,030.7,30.8,0000.0,0005.15,0011.03,0003.96
2023-06-30 02:22:00,SystemResetWarning,0830.6,5.01,000.00,029.2,027.1,000.0,037.8,030.7,31.0,0000.0,0005.16,0010.79,0003.98
2023-06-30 02:23:00,SystemResetWarning,0830.6,5.01,000.00,029.2,027.3,000.0,037.8,030.8,30.5,0000.0,0005.15,0009.88,0003.98
2023-06-30 02:24:00,SystemResetWarning,0830.5,4.98,000.00,029.3,027.6,000.0,037.8,030.8,30.1,0000.0,0005.14,0009.93,0003.98
2023-06-30 02:25:00,SystemResetWarning,0830.6,5.00,000.00,029.3,027.7,000.0,037.8,030.9,30.3,0000.2,0005.15,0010.60,0003.96
2023-06-30 02:26:00,SystemResetWarning,0830.6,5.02,000.00,029.3,027.9,000.0,037.8,030.9,30.3,0000.1,0005.15,0010.78,0003.97
2023-06-30 02:27:00,SystemResetWarning,0830.7,4.99,000.00,029.3,028.0,000.0,037.8,031.0,30.4,0000.0,0005.14,0011.04,0003.96
2023-06-30 02:28:00,SystemResetWarning,0830.6,5.00,000.00,029.4,028.1,000.0,037.9,031.0,29.9,0000.0,0005.11,0011.16,0003.96
2023-06-30 02:29:00,SystemResetWarning,0830.6,5.00,000.00,029.4,028.2,000.0,037.9,031.0,30.2,0000.0,0005.11,0011.56,0003.96
2023-06-30 02:30:00,SystemResetWarning,0830.6,5.00,000.00,029.4,028.2,000.0,037.9,031.1,30.2,0000.0,0005.16,0011.43,0003.95
2023-06-30 02:31:00,SystemResetWarning,0830.6,5.00,000.00,029.5,028.3,000.0,037.9,031.1,29.6,0000.1,0005.17,0011.47,0003.94
2023-06-30 02:32:00,SystemResetWarning,0830.7,5.00,000.00,029.5,028.4,000.0,037.9,031.1,29.1,0000.1,0005.18,0011.57,0003.93
2023-06-30 02:33:00,SystemResetWarning,0830.6,4.99,000.00,029.5,028.1,000.0,037.9,031.2,29.1,0000.0,0005.13,0011.45,0003.90
2023-06-30 02:34:00,SystemResetWarning,0830.6,5.00,000.00,029.5,026.4,000.0,037.8,030.9,29.3,0000.0,0005.15,0011.44,0003.89
2023-06-30 02:35:00,SystemResetWarning,0830.4,5.01,000.00,029.4,025.3,000.0,037.7,030.7,29.8,0000.0,0005.15,0011.86,0003.87
2023-06-30 02:36:00,SystemResetWarning,0830.4,5.01,000.00,029.3,025.2,000.0,037.7,030.4,30.6,0000.0,0005.15,0011.30,0003.86
2023-06-30 02:37:00,SystemResetWarning,0830.3,5.00,000.00,029.2,025.6,000.0,037.7,030.4,31.1,0000.0,0005.12,0011.04,0003.86
2023-06-30 02:38:00,SystemResetWarning,0830.3,5.00,000.00,029.2,026.0,000.0,037.8,030.5,31.2,0000.0,0005.14,0010.79,0003.85
2023-06-30 02:39:00,SystemResetWarning,0830.4,5.01,000.00,029.2,026.4,000.0,037.8,030.5,31.1,0000.0,0005.13,0010.57,0003.84
2023-06-30 02:40:00,SystemResetWarning,0830.5,5.00,000.00,029.2,026.7,000.0,037.8,030.6,31.3,0000.0,0005.13,0010.06,0003.83
2023-06-30 02:41:00,SystemResetWarning,0830.6,4.99,000.00,029.2,027.0,000.0,037.8,030.7,30.9,0000.0,0005.10,0010.14,0003.83
2023-06-30 02:42:00,SystemResetWarning,0830.8,5.00,000.00,029.2,027.3,000.0,037.8,030.7,30.8,0000.0,0005.05,0010.23,0003.82
2023-06-30 02:43:00,SystemResetWarning,0830.9,5.01,000.00,029.2,027.5,000.0,037.8,030.8,30.9,0000.0,0005.06,0010.19,0003.83
2023-06-30 02:44:00,SystemResetWarning,0830.9,5.00,000.00,029.2,027.7,000.0,037.8,030.8,30.9,0000.0,0005.15,0010.64,0003.86
2023-06-30 02:45:00,SystemResetWarning,0831.0,5.00,000.00,029.3,027.8,000.0,037.8,030.9,30.9,0000.0,0005.14,0010.81,0003.88
2023-06-30 02:46:00,SystemResetWarning,0831.0,4.99,000.00,029.3,027.9,000.0,037.8,030.9,30.8,0000.0,0005.13,0010.28,0003.90
2023-06-30 02:47:00,SystemResetWarning,0831.1,5.00,000.00,029.3,028.0,000.0,037.8,031.0,30.8,0000.0,0005.16,0010.26,0003.92
2023-06-30 02:48:00,SystemResetWarning,0831.1,5.00,000.00,029.3,028.1,000.0,037.8,031.0,30.7,0000.0,0005.25,0010.88,0003.96
2023-06-30 02:49:00,SystemResetWarning,0831.1,5.00,000.00,029.4,028.2,000.0,037.9,031.0,30.7,0000.0,0005.30,0011.23,0003.99
2023-06-30 02:50:00,SystemResetWarning,0831.1,5.00,000.00,029.4,028.3,000.0,037.9,031.1,30.7,0000.0,0005.33,0011.37,0004.01
2023-06-30 02:51:00,SystemResetWarning,0831.1,4.99,000.00,029.4,028.3,000.0,037.9,031.1,30.5,0000.0,0005.32,0011.30,0004.02
2023-06-30 02:52:00,SystemResetWarning,0831.1,5.00,000.00,029.5,028.4,000.0,037.9,031.1,30.7,0000.0,0005.34,0011.20,0004.04
2023-06-30 02:53:00,SystemResetWarning,0831.2,5.00,000.00,029.5,027.8,000.0,037.9,031.1,30.8,0000.0,0005.39,0011.42,0004.05
2023-06-30 02:54:00,SystemResetWarning,0831.2,5.01,000.00,029.5,026.0,000.0,037.8,030.9,30.7,0000.0,0005.39,0012.39,0004.06
2023-06-30 02:55:00,SystemResetWarning,0831.2,5.00,000.00,029.4,025.2,000.0,037.7,030.6,30.8,0000.0,0005.34,0012.08,0004.07
2023-06-30 02:56:00,SystemResetWarning,0831.2,5.02,000.00,029.2,025.3,000.0,037.7,030.3,31.3,0000.0,0005.33,0011.92,0004.08
2023-06-30 02:57:00,SystemResetWarning,0831.2,4.99,000.00,029.2,025.7,000.0,037.7,030.4,31.5,0000.0,0005.35,0012.02,0004.10
2023-06-30 02:58:00,SystemResetWarning,0831.1,5.00,000.00,029.1,026.1,000.0,037.7,030.5,31.3,0000.0,0005.38,0012.11,0004.12
2023-06-30 02:59:00,SystemResetWarning,0831.2,5.01,000.00,029.1,026.5,000.0,037.7,030.5,31.4,0000.0,0005.33,0011.65,0004.11
